User: anonymous   Login
Location: Unspecified
(0.0000°N, 0.0000°E)
Time: 13:39:57
(UTC+00:00)
Language:

RS-13 - Orbit

View from above orbital plane
View from above orbital plane
View from above satellite
View from above satellite

Ground track
Ground track

The orbit data is extracted from the following two-line orbital elements,

1 21089U 91007A   18112.90631076 +.00000036 +00000-0 +22377-4 0  9996
2 21089 082.9269 027.8517 0028528 327.1970 102.7287 13.74656593364900
Epoch (UTC): 22 April 2018 21:45:05
Eccentricity: 0.0028528
inclination: 82.9269°
perigee height: 962 km
apogee height: 1004 km
right ascension of ascending node: 27.8517°
argument of perigee: 327.1970°
revolutions per day: 13.74656593
mean anomaly at epoch: 102.7287°
orbit number at epoch: 36490

The dashed part of the orbit path shows where the satellite is in the earth's shadow,  

DLR